This is the latest recevied weather packets stored in our database for station/object N4XHQ-13. If no packets are shown the sender has not sent any weather packets the latest 10 day(s).
| Time | Temp. | Humidity | Pressure | Rain* | Wind** | Luminosity | Snow |
|---|---|---|---|---|---|---|---|
| 1787764296 | 35° C | 40% | 1017 hPa | 0 mm | - | 932 W/m² | - |
| 1787763994 | 35° C | 40% | 1016.9 hPa | 0 mm | - | 803 W/m² | - |
| 1787763689 | 34.44° C | 41% | 1016.7 hPa | 0 mm | - | 859 W/m² | - |
| 1787763384 | 34.44° C | 41% | 1016.6 hPa | 0 mm | - | 846 W/m² | - |
| 1787763084 | 34.44° C | 40% | 1016.7 hPa | 0 mm | - | 846 W/m² | - |
| 1787762783 | 33.89° C | 41% | 1016.9 hPa | 0 mm | - | 846 W/m² | - |
| 1787762478 | 33.89° C | 39% | 1016.7 hPa | 0 mm | - | 847 W/m² | - |
| 1787762175 | 33.89° C | 40% | 1016.7 hPa | 0 mm | - | 825 W/m² | - |
| 1787761870 | 33.89° C | 40% | 1016.9 hPa | 0 mm | - | 796 W/m² | - |
| 1787761565 | 33.89° C | 41% | 1016.9 hPa | 0 mm | - | 812 W/m² | - |
| 1787761261 | 33.33° C | 43% | 1017.1 hPa | 0 mm | - | 810 W/m² | - |
| 1787760959 | 32.78° C | 44% | 1017 hPa | 0 mm | - | 805 W/m² | - |
| 1787760657 | 32.78° C | 43% | 1017.2 hPa | 0 mm | - | 762 W/m² | - |
| 1787760357 | 32.78° C | 45% | 1017.1 hPa | 0 mm | - | 752 W/m² | - |
| 1787760052 | 32.78° C | 45% | 1017.3 hPa | 0 mm | - | 774 W/m² | - |
| 1787759750 | 32.22° C | 47% | 1017.2 hPa | 0 mm | - | 738 W/m² | - |
| 1787759445 | 32.22° C | 47% | 1017.5 hPa | 0 mm | - | 688 W/m² | - |
| 1787759140 | 31.11° C | 49% | 1017.2 hPa | 0 mm | - | 723 W/m² | - |
| 1787758839 | 30.56° C | 50% | 1017.4 hPa | 0 mm | - | 721 W/m² | - |
| 1787758535 | 31.11° C | 52% | 1017.5 hPa | 0 mm | - | 330 W/m² | - |
| 1787758234 | 31.11° C | 52% | 1017.5 hPa | 0 mm | - | 501 W/m² | - |
| 1787757929 | 30.56° C | 53% | 1017.5 hPa | 0 mm | - | 506 W/m² | - |
| 1787757626 | 30° C | 52% | 1017.6 hPa | 0 mm | - | 561 W/m² | - |
| 1787757325 | 30° C | 52% | 1017.6 hPa | 0 mm | - | 330 W/m² | - |
| 1787757025 | 30.56° C | 54% | 1017.3 hPa | 0 mm | - | 283 W/m² | - |
* Rain latest hour (hover to see other rain measurements)
** Current wind speed in m/s (hover to see current wind gust speed)